Вернуться в каталог

CZ-6A DEB

АктивенPO
NORAD 61352·DEBRIS·🇨🇳 China

Запущен Aug 6, 2024 с Taiyuan Satellite Launch Center

Loading…

Ближайшие Пролёты (ближайшие 24 часа)

TLE

СвежийSource: Space-Track

Эпоха: Sep 14, 2026, 10:39 UTC

1 61352U 24140VR  26257.44421084  .00001622  00000-0  63601-3 0  9997
2 61352  88.9922 263.2981 0024879 202.4041 157.6070 14.28840255105743

Отслеживайте CZ-6A DEB в реальном времени с AllMySat

Download on the App Store